Regional Weather Roundup
Issued by NWS Albany, NY

Current Version | Previous Version | Text Only | Print | Product List | Glossary On
Versions: 1 2 3 4 5 6 7 8 9 10 11 12 13 14 15 16 17 18 19 20 21 22 23 24 25 26 27 28 29 30 31 32 33 34 35 36 37 38 39 40 41 42 43 44 45 46 47 48 49 50
000
ASUS41 KALY 220210
RWRALY

NEW YORK STATE HOURLY WEATHER ROUNDUP
NATIONAL WEATHER SERVICE ALBANY NY
1000 PM EDT SUN SEP 21 2014

NOTE: "FAIR" INDICATES FEW OR NO CLOUDS BELOW 12,000 FEET WITH NO
SIGNIFICANT WEATHER AND/OR NO OBSTRUCTIONS TO VISIBILITY.

NYZ032-033-038>043-046>054-057>066-NYZ062>081-220300-
EAST


CITY           SKY/WX    TMP DP  RH WIND       PRES   REMARKS
ALBANY         CLOUDY    69  52  54 W15       29.62R
GLENS FALLS    LGT RAIN  66  59  78 W6        29.58R
POUGHKEEPSIE   PTCLDY    66  64  93 CALM      29.60S FOG
MONTGOMERY     CLEAR     64  62  93 SW5       29.61F
WHITE PLAINS   PTCLDY    68  66  93 VRB5      29.63R FOG
ISLIP          FOG       68  67  96 SW3       29.61R VSB 1/2
NEW YORK CITY  PTCLDY    72  66  81 SW8       29.62R
CENTRAL PARK   CLEAR     71  65  81 SW5       29.65R
$$

NYZ005>009-017-018-044>046-055-056-220300-
CENTRAL


CITY           SKY/WX    TMP DP  RH WIND       PRES   REMARKS
FULTON         PTCLDY    62  52  69 SW8       29.62R
SYRACUSE       PTCLDY    64  55  72 SW9       29.62S
ROME           CLOUDY    58  58 100 CALM      29.64R
ELMIRA         MOCLDY    57  57 100 NW3       29.69R
BINGHAMTON     CLOUDY    62  53  72 W9G21     29.69S
MONTICELLO     CLOUDY    61  59  94 W5        29.70R
$$

NYZ026>034-041>043-220300-
NORTH


CITY           SKY/WX    TMP DP  RH WIND       PRES   REMARKS
WATERTOWN      MOCLDY    65  55  70 W7        29.59R
FORT DRUM      NOT AVBL
MASSENA        MOCLDY    60  56  86 W12       29.57R
SARANAC LAKE   CLOUDY    59  58  96 SW6       29.58F
PLATTSBURGH    LGT RAIN  66  64  93 CALM      29.53F
$$

NYZ001>004-010>016-019>021-220300-
WEST


CITY           SKY/WX    TMP DP  RH WIND       PRES   REMARKS
NIAGARA FALLS  MOCLDY    60  52  74 W17G23    29.67R
BUFFALO        MOCLDY    62  51  67 W9        29.67R
DUNKIRK        MOCLDY    60  55  83 SW17G26   29.70R
JAMESTOWN      CLOUDY    55  52  88 W15G21    29.74R
WELLSVILLE     PTCLDY    56  47  71 W10       29.73S
ROCHESTER      MOCLDY    62  55  77 W9        29.64R
PENN YAN       PTCLDY    62  51  67 SW9       29.68R
$$

             KEY
       WCI = WIND CHILL INDEX
       VSB = VISIBILITY
       HX  = HEAT INDEX
$$


USA.gov is the U.S. government's official web portal to all federal, state and local government web resources and services.